TimeMDT,TemperatureF,Dew PointF,Humidity,Sea Level PressureIn,VisibilityMPH,Wind Direction,Wind SpeedMPH,Gust SpeedMPH,PrecipitationIn,Events,Conditions,WindDirDegrees,DateUTC
12:53 AM,57.0,36.0,45,30.14,10.0,Calm,Calm,-,N/A,,Clear,0,2013-05-11 06:53:00
1:53 AM,57.0,36.0,45,30.13,10.0,SSE,9.2,-,N/A,,Clear,160,2013-05-11 07:53:00
2:53 AM,57.0,36.0,45,30.13,10.0,South,9.2,-,N/A,,Clear,180,2013-05-11 08:53:00
3:53 AM,54.0,36.0,51,30.13,10.0,South,12.7,-,N/A,,Clear,190,2013-05-11 09:53:00
4:53 AM,54.0,35.1,49,30.13,10.0,South,8.1,-,N/A,,Clear,180,2013-05-11 10:53:00
5:53 AM,51.1,36.0,56,30.14,10.0,SSE,8.1,-,N/A,,Clear,160,2013-05-11 11:53:00
6:53 AM,51.1,37.0,59,30.15,10.0,South,8.1,-,N/A,,Clear,180,2013-05-11 12:53:00
7:53 AM,59.0,39.9,49,30.15,10.0,South,6.9,-,N/A,,Clear,190,2013-05-11 13:53:00
8:53 AM,64.0,46.0,52,30.18,10.0,Calm,Calm,-,N/A,,Clear,0,2013-05-11 14:53:00
9:53 AM,66.9,46.9,49,30.17,10.0,ENE,5.8,-,N/A,,Clear,60,2013-05-11 15:53:00
10:53 AM,71.1,45.0,39,30.17,10.0,ENE,6.9,-,N/A,,Clear,70,2013-05-11 16:53:00
11:53 AM,77.0,42.1,29,30.14,10.0,NNE,6.9,-,N/A,,Clear,20,2013-05-11 17:53:00
12:53 PM,79.0,39.0,24,30.13,10.0,Variable,3.5,-,N/A,,Clear,0,2013-05-11 18:53:00
1:53 PM,81.0,35.1,19,30.12,10.0,WNW,6.9,-,N/A,,Clear,300,2013-05-11 19:53:00
2:53 PM,84.0,30.0,14,30.09,10.0,NW,6.9,-,N/A,,Clear,320,2013-05-11 20:53:00
3:53 PM,84.0,30.9,15,30.08,10.0,WSW,6.9,-,N/A,,Clear,250,2013-05-11 21:53:00
4:53 PM,84.0,28.0,13,30.06,10.0,WNW,9.2,-,N/A,,Clear,290,2013-05-11 22:53:00
5:53 PM,84.0,27.0,13,30.05,10.0,NW,11.5,-,N/A,,Clear,310,2013-05-11 23:53:00
6:53 PM,82.9,28.0,14,30.05,10.0,NW,6.9,-,N/A,,Clear,310,2013-05-12 00:53:00
7:53 PM,81.0,30.9,16,30.03,10.0,Calm,Calm,-,N/A,,Clear,0,2013-05-12 01:53:00
8:53 PM,62.1,42.1,48,30.05,10.0,SSE,5.8,-,N/A,,Clear,150,2013-05-12 02:53:00
9:53 PM,62.1,36.0,38,30.05,10.0,SSE,9.2,-,N/A,,Clear,160,2013-05-12 03:53:00
10:53 PM,63.0,32.0,31,30.05,10.0,South,11.5,-,N/A,,Clear,170,2013-05-12 04:53:00
11:53 PM,60.1,33.1,36,30.04,10.0,South,8.1,-,N/A,,Clear,180,2013-05-12 05:53:00